Overview Statistics Trail Chart Weather Telemetry Raw packets
 

This is the latest recevied weather packets stored in our database for station/object S56VIL-11. If no packets are shown the sender has not sent any weather packets the latest 10 day(s).

<< 30 31 32 33 34 35 36 >>
Time Temp. Humidity Pressure Rain* Wind** Luminosity Snow
1787905851 27.78° C 67% 1031.7 hPa - - - -
1787904948 24.44° C 69% 1031.7 hPa - - - -
1787904048 22.78° C 71% 1031.6 hPa - - - -
1787903148 22.78° C 71% 1032.1 hPa - - - -
1787901347 23.33° C 70% 1031.5 hPa - - - -
1787900450 23.89° C 70% 1031.6 hPa - - - -
1787899547 22.78° C 71% 1031.6 hPa - - - -
1787898649 22.78° C 70% 1031.8 hPa - - - -
1787897746 23.33° C 70% 1032.1 hPa - - - -
1787896849 23.33° C 70% 1032.1 hPa - - - -
1787895947 23.33° C 70% 1032 hPa - - - -
1787895049 22.22° C 70% 1031.9 hPa - - - -
1787894146 21.67° C 71% 1031.7 hPa - - - -
1787893353 20.56° C 72% 1031.5 hPa - - - -
1787893248 20.56° C 72% 1031.5 hPa - - - -
1787892346 20° C 72% 1031.2 hPa - - - -
1787891448 20.56° C 71% 1031.1 hPa - - - -
1787890546 21.11° C 71% 1030.9 hPa - - - -
1787889648 20.56° C 71% 1031.1 hPa - - - -
1787888747 20.56° C 71% 1031.1 hPa - - - -
1787887847 22.22° C 70% 1030.9 hPa - - - -
1787886946 21.11° C 71% 1030.9 hPa - - - -
1787886047 20.56° C 71% 1031.1 hPa - - - -
1787885146 21.11° C 71% 1031.3 hPa - - - -
1787884246 21.11° C 71% 1031.4 hPa - - - -

* Rain since midnight (hover to see other rain measurements)
** Current wind speed in m/s (hover to see current wind gust speed)